CW4541 Weather Reports


time (UTC)temp
C
wind
direction
speed
KPH
gust
KPH
rain 1hr
cm
rain 24hr
cm
rain mn
cm
humidity
%
barometer
mb
20260906060112 13 104 0.0 0.0 0.00 0.00 0.00 24 1022.1
20260906050606 13 122 0.0 0.0 0.00 0.00 0.00 29 1022.0
20260906050112 13 110 0.0 0.0 0.00 0.00 0.00 28 1021.9
20260906040607 15 21 0.0 1.6 0.00 0.00 0.00 26 1022.0
20260906040112 15 21 0.0 0.0 0.00 0.00 0.00 26 1021.9
20260906030606 16 19 0.0 1.6 0.00 0.00 0.00 20 1021.3
20260906030113 16 20 0.0 1.6 0.00 0.00 0.00 20 1021.1
20260906020607 19 17 0.0 0.0 0.00 0.00 0.00 16 1020.6
20260906020112 20 16 0.0 1.6 0.00 0.00 0.00 15 1020.6
20260906010606 24 13 0.0 8.0 0.00 0.00 0.00 10 1020.6
20260906000606 26 198 1.6 9.7 0.00 0.00 0.00 9 1020.4
20260905230606 27 193 1.6 12.9 0.00 0.00 0.00 10 1020.3
20260905230112 27 188 1.6 12.9 0.00 0.00 0.00 10 1020.2
20260905220605 27 121 1.6 11.3 0.00 0.00 0.00 10 1020.7
20260905210606 26 207 3.2 12.9 0.00 0.00 0.00 10 1021.2
20260905210111 26 187 3.2 12.9 0.00 0.00 0.00 12 1021.2
20260905200606 26 257 1.6 11.3 0.00 0.00 0.00 16 1021.8
20260905200111 26 197 4.8 12.9 0.00 0.00 0.00 16 1021.8
20260905190606 25 169 4.8 12.9 0.00 0.00 0.00 19 1022.2
20260905190111 25 142 3.2 14.5 0.00 0.00 0.00 19 1022.3
20260905180605 24 222 3.2 16.1 0.00 0.00 0.00 23 1022.7
20260905180112 24 198 3.2 16.1 0.00 0.00 0.00 23 1022.9
20260905170605 22 16 1.6 9.7 0.00 0.00 0.00 30 1023.3
20260905170112 21 13 1.6 9.7 0.00 0.00 0.00 30 1023.4
20260905160606 21 170 1.6 12.9 0.00 0.00 0.00 32 1023.2
20260905150606 19 13 3.2 11.3 0.00 0.00 0.00 35 1023.0
20260905140111 14 20 4.8 9.7 0.00 0.00 0.00 49 1022.8
20260905130605 13 98 1.6 8.0 0.00 0.00 0.00 50 1022.4
20260905130111 13 86 0.0 9.7 0.00 0.00 0.00 49 1022.3
20260905120606 13 89 1.6 9.7 0.00 0.00 0.00 50 1022.0
20260905110605 11 124 0.0 0.0 0.00 0.00 0.00 50 1022.0
20260905100111 11 121 0.0 1.6 0.00 0.00 0.00 47 1021.6
20260905090605 11 133 0.0 0.0 0.00 0.00 0.00 43 1021.6
20260905090111 12 135 0.0 0.0 0.00 0.00 0.00 43 1021.6
20260905080605 12 135 0.0 0.0 0.00 0.00 0.00 39 1021.4
20260905080111 12 136 0.0 0.0 0.00 0.00 0.00 39 1021.5
20260905070605 13 129 0.0 1.6 0.00 0.00 0.00 36 1021.3
20260905070111 13 127 0.0 1.6 0.00 0.00 0.00 36 1021.1
20260905060605 13 113 0.0 0.0 0.00 0.00 0.00 35 1021.1